Back to Top

Language: 

My Weather Underground Personal Weather Station Historical Data with Graphs...

Delerius Weather Station Historical Data
Daily Summary for April 12, 2017 Units:  Metric    English   Both
« Previous Day
Next Day »
Daily Weekly Monthly Yearly Custom
  High: Low: Average:
Temperature: 13.7 °C 7.1 °C 10.1 °C
Dew Point: 8.9 °C 3.6 °C 5.9 °C
Humidity: 85 % 58 % 76 %
Wind Speed: 30.6 km/h 11.3 km/h 23.5 km/h
Wind Gust: 54.7 km/h - -
Wind:- - WNW
Pressure: 1019.9 hPa 1013.4 hPa -
Precipitation: 0 mm    
Historical Graphs
 
 
Tabular Data for April 12, 2017
Time Temperature Dew Point Pressure Wind Wind Speed Wind Gust Humidity Rainfall Rate (Hourly) solar Conditions
00:03 9.6 °C 5.9 °C 1019.9 hPa WSW 14.5 km/h 40.2 km/h 78 % 0 mm 0 W/m2
00:08 9.6 °C 5.9 °C 1019.5 hPa WSW 11.3 km/h 40.2 km/h 78 % 0 mm 0 W/m2
00:13 9.6 °C 6.1 °C 1019.5 hPa West 12.9 km/h 30.6 km/h 79 % 0 mm 0 W/m2
00:18 9.6 °C 6.1 °C 1019.5 hPa West 17.7 km/h 37 km/h 79 % 0 mm 0 W/m2
00:23 9.6 °C 6.1 °C 1019.5 hPa West 19.3 km/h 38.6 km/h 79 % 0 mm 0 W/m2
00:28 9.6 °C 6.1 °C 1019.5 hPa West 17.7 km/h 38.6 km/h 79 % 0 mm 0 W/m2
00:33 9.6 °C 6.1 °C 1019.2 hPa West 17.7 km/h 35.4 km/h 79 % 0 mm 0 W/m2
00:38 9.6 °C 6.1 °C 1019.2 hPa West 19.3 km/h 37 km/h 79 % 0 mm 0 W/m2
00:43 9.6 °C 6.1 °C 1019.2 hPa West 19.3 km/h 37 km/h 79 % 0 mm 0 W/m2
00:48 9.6 °C 6.1 °C 1019.2 hPa West 17.7 km/h 35.4 km/h 79 % 0 mm 0 W/m2
00:53 9.6 °C 6.1 °C 1019.2 hPa West 19.3 km/h 40.2 km/h 79 % 0 mm 0 W/m2
00:58 9.6 °C 6.1 °C 1018.8 hPa West 24.1 km/h 45.1 km/h 79 % 0 mm 0 W/m2
01:03 9.6 °C 6.1 °C 1018.8 hPa West 20.9 km/h 45.1 km/h 79 % 0 mm 0 W/m2
01:08 9.6 °C 6.1 °C 1018.8 hPa West 19.3 km/h 33.8 km/h 79 % 0 mm 0 W/m2
01:18 9.6 °C 6.1 °C 1018.5 hPa West 22.5 km/h 41.8 km/h 79 % 0 mm 0 W/m2
01:23 9.5 °C 6.1 °C 1018.5 hPa West 24.1 km/h 43.5 km/h 79 % 0 mm 0 W/m2
01:28 9.5 °C 6.1 °C 1018.5 hPa West 24.1 km/h 43.5 km/h 79 % 0 mm 0 W/m2
01:33 9.5 °C 6.1 °C 1018.5 hPa West 24.1 km/h 46.7 km/h 79 % 0 mm 0 W/m2
01:38 9.5 °C 6.1 °C 1018.5 hPa West 24.1 km/h 46.7 km/h 79 % 0 mm 0 W/m2
01:43 9.5 °C 6.1 °C 1018.2 hPa West 25.7 km/h 46.7 km/h 79 % 0 mm 0 W/m2
01:48 9.5 °C 6.1 °C 1018.2 hPa West 27.4 km/h 48.3 km/h 79 % 0 mm 0 W/m2
01:53 9.5 °C 6.1 °C 1018.5 hPa West 24.1 km/h 51.5 km/h 79 % 0 mm 0 W/m2
01:58 9.5 °C 6.1 °C 1018.5 hPa West 24.1 km/h 51.5 km/h 79 % 0 mm 0 W/m2
02:03 9.4 °C 5.9 °C 1018.5 hPa West 29 km/h 46.7 km/h 79 % 0 mm 0 W/m2
02:08 9.4 °C 5.9 °C 1018.5 hPa West 29 km/h 48.3 km/h 79 % 0 mm 0 W/m2
02:13 9.4 °C 5.9 °C 1018.2 hPa West 24.1 km/h 48.3 km/h 79 % 0 mm 0 W/m2
02:18 9.4 °C 5.9 °C 1018.2 hPa West 22.5 km/h 40.2 km/h 79 % 0 mm 0 W/m2
02:23 9.3 °C 5.8 °C 1018.2 hPa West 24.1 km/h 45.1 km/h 79 % 0 mm 0 W/m2
02:28 9.3 °C 5.8 °C 1017.8 hPa West 27.4 km/h 46.7 km/h 79 % 0 mm 0 W/m2
02:33 9.3 °C 5.8 °C 1018.2 hPa West 29 km/h 48.3 km/h 79 % 0 mm 0 W/m2
02:38 9.2 °C 5.7 °C 1017.8 hPa West 25.7 km/h 48.3 km/h 79 % 0 mm 0 W/m2
02:40 9.2 °C 5.7 °C 1017.8 hPa West 25.7 km/h 48.3 km/h 79 % 0 mm 0 W/m2
02:45 9.2 °C 5.7 °C 1017.8 hPa West 24.1 km/h 41.8 km/h 79 % 0 mm 0 W/m2
02:50 9.2 °C 5.7 °C 1017.8 hPa West 27.4 km/h 49.9 km/h 79 % 0 mm 0 W/m2
02:55 9.1 °C 5.7 °C 1017.8 hPa West 27.4 km/h 49.9 km/h 79 % 0 mm 0 W/m2
03:00 9.1 °C 5.4 °C 1017.8 hPa West 27.4 km/h 48.3 km/h 78 % 0 mm 0 W/m2
03:05 9.1 °C 5.4 °C 1017.8 hPa West 27.4 km/h 43.5 km/h 78 % 0 mm 0 W/m2
03:10 9.1 °C 5.4 °C 1017.8 hPa West 27.4 km/h 43.5 km/h 78 % 0 mm 0 W/m2
03:15 9.1 °C 5.4 °C 1017.8 hPa West 25.7 km/h 41.8 km/h 78 % 0 mm 0 W/m2
03:20 9.1 °C 5.7 °C 1017.8 hPa West 25.7 km/h 40.2 km/h 79 % 0 mm 0 W/m2
03:25 9 °C 5.6 °C 1017.8 hPa West 24.1 km/h 40.2 km/h 79 % 0 mm 0 W/m2
03:30 9 °C 5.6 °C 1017.5 hPa WNW 22.5 km/h 38.6 km/h 79 % 0 mm 0 W/m2
03:35 8.9 °C 5.6 °C 1017.5 hPa WNW 24.1 km/h 38.6 km/h 80 % 0 mm 0 W/m2
03:40 8.9 °C 5.6 °C 1017.5 hPa West 25.7 km/h 43.5 km/h 80 % 0 mm 0 W/m2
03:46 8.9 °C 5.6 °C 1017.5 hPa West 25.7 km/h 43.5 km/h 80 % 0 mm 0 W/m2
03:51 9 °C 5.7 °C 1017.8 hPa WNW 25.7 km/h 40.2 km/h 80 % 0 mm 0 W/m2
03:56 8.9 °C 5.6 °C 1017.5 hPa WNW 27.4 km/h 43.5 km/h 80 % 0 mm 0 W/m2
04:01 9 °C 5.6 °C 1017.5 hPa WNW 29 km/h 46.7 km/h 79 % 0 mm 0 W/m2
04:06 9 °C 5.4 °C 1017.5 hPa WNW 29 km/h 46.7 km/h 78 % 0 mm 0 W/m2
04:11 9 °C 5.4 °C 1017.5 hPa WNW 27.4 km/h 43.5 km/h 78 % 0 mm 0 W/m2
04:16 9 °C 5.4 °C 1017.5 hPa WNW 25.7 km/h 40.2 km/h 78 % 0 mm 0 W/m2
04:21 9 °C 5.4 °C 1017.5 hPa WNW 27.4 km/h 43.5 km/h 78 % 0 mm 0 W/m2
04:26 9 °C 5.4 °C 1017.5 hPa WNW 27.4 km/h 43.5 km/h 78 % 0 mm 0 W/m2
04:31 8.9 °C 5.3 °C 1017.5 hPa WNW 25.7 km/h 46.7 km/h 78 % 0 mm 0 W/m2
04:36 9 °C 5.4 °C 1017.2 hPa WNW 25.7 km/h 46.7 km/h 78 % 0 mm 0 W/m2
04:41 8.9 °C 5.1 °C 1017.2 hPa WNW 25.7 km/h 41.8 km/h 77 % 0 mm 0 W/m2
04:46 8.9 °C 5.1 °C 1017.2 hPa WNW 25.7 km/h 40.2 km/h 77 % 0 mm 0 W/m2
04:51 8.9 °C 5.1 °C 1017.2 hPa WNW 27.4 km/h 40.2 km/h 77 % 0 mm 0 W/m2
05:01 8.9 °C 5.3 °C 1016.8 hPa WNW 24.1 km/h 37 km/h 78 % 0 mm 0 W/m2
05:06 8.9 °C 5.3 °C 1016.8 hPa WNW 25.7 km/h 46.7 km/h 78 % 0 mm 0 W/m2
05:11 8.9 °C 5.3 °C 1016.8 hPa WNW 29 km/h 46.7 km/h 78 % 0 mm 0 W/m2
05:16 8.9 °C 5.3 °C 1016.8 hPa WNW 27.4 km/h 43.5 km/h 78 % 0 mm 0 W/m2
05:21 8.9 °C 5.3 °C 1016.8 hPa WNW 25.7 km/h 43.5 km/h 78 % 0 mm 0 W/m2
05:26 8.9 °C 5.3 °C 1016.8 hPa WNW 27.4 km/h 51.5 km/h 78 % 0 mm 0 W/m2
05:31 8.9 °C 5.3 °C 1016.5 hPa WNW 29 km/h 51.5 km/h 78 % 0 mm 0 W/m2
05:36 8.9 °C 5.3 °C 1016.5 hPa WNW 29 km/h 43.5 km/h 78 % 0 mm 0 W/m2
05:37 8.9 °C 5.3 °C 1016.5 hPa WNW 29 km/h 43.5 km/h 78 % 0 mm 0 W/m2
05:42 8.9 °C 5.3 °C 1016.1 hPa WNW 27.4 km/h 49.9 km/h 78 % 0 mm 0 W/m2
05:47 8.9 °C 5.4 °C 1016.1 hPa WNW 29 km/h 49.9 km/h 79 % 0 mm 0 W/m2
05:52 8.9 °C 5.3 °C 1016.1 hPa WNW 27.4 km/h 51.5 km/h 78 % 0 mm 0 W/m2
05:57 8.9 °C 5.3 °C 1016.1 hPa WNW 29 km/h 54.7 km/h 78 % 0 mm 0 W/m2
06:02 8.9 °C 5.4 °C 1016.1 hPa WNW 29 km/h 54.7 km/h 79 % 0 mm 0 W/m2
06:07 8.9 °C 5.4 °C 1016.1 hPa WNW 25.7 km/h 43.5 km/h 79 % 0 mm 0 W/m2
06:12 8.9 °C 5.4 °C 1016.1 hPa WNW 25.7 km/h 43.5 km/h 79 % 0 mm 0 W/m2
06:17 8.8 °C 5.3 °C 1016.1 hPa WNW 25.7 km/h 43.5 km/h 79 % 0 mm 0 W/m2
06:22 8.8 °C 5.6 °C 1016.1 hPa WNW 25.7 km/h 41.8 km/h 80 % 0 mm 7 W/m2
06:27 8.8 °C 5.6 °C 1016.1 hPa WNW 25.7 km/h 40.2 km/h 80 % 0 mm 11 W/m2
06:32 8.7 °C 5.4 °C 1015.8 hPa WNW 25.7 km/h 45.1 km/h 80 % 0 mm 11 W/m2
06:37 8.7 °C 5.6 °C 1015.8 hPa WNW 25.7 km/h 45.1 km/h 81 % 0 mm 11 W/m2
06:42 8.7 °C 5.6 °C 1015.8 hPa WNW 24.1 km/h 40.2 km/h 81 % 0 mm 14 W/m2
06:47 8.7 °C 5.6 °C 1015.8 hPa WNW 25.7 km/h 46.7 km/h 81 % 0 mm 16 W/m2
06:52 8.7 °C 5.6 °C 1015.8 hPa WNW 27.4 km/h 46.7 km/h 81 % 0 mm 18 W/m2
06:57 8.7 °C 5.6 °C 1015.8 hPa WNW 25.7 km/h 46.7 km/h 81 % 0 mm 19 W/m2
07:02 8.7 °C 5.6 °C 1015.8 hPa WNW 27.4 km/h 48.3 km/h 81 % 0 mm 25 W/m2
07:07 8.7 °C 5.6 °C 1015.8 hPa WNW 29 km/h 48.3 km/h 81 % 0 mm 26 W/m2
07:12 8.7 °C 5.6 °C 1015.8 hPa WNW 27.4 km/h 49.9 km/h 81 % 0 mm 25 W/m2
07:17 8.7 °C 5.8 °C 1015.8 hPa WNW 25.7 km/h 49.9 km/h 82 % 0 mm 30 W/m2
07:22 8.7 °C 5.8 °C 1015.8 hPa WNW 25.7 km/h 46.7 km/h 82 % 0 mm 40 W/m2
07:27 8.7 °C 5.8 °C 1015.8 hPa WNW 27.4 km/h 46.7 km/h 82 % 0 mm 44 W/m2
07:32 8.7 °C 6 °C 1015.8 hPa WNW 30.6 km/h 48.3 km/h 83 % 0 mm 42 W/m2
07:33 8.8 °C 6.1 °C 1015.8 hPa WNW 30.6 km/h 48.3 km/h 83 % 0 mm 44 W/m2
07:38 8.7 °C 6 °C 1015.8 hPa WNW 30.6 km/h 48.3 km/h 83 % 0 mm 49 W/m2
07:43 8.7 °C 6 °C 1015.8 hPa WNW 29 km/h 46.7 km/h 83 % 0 mm 56 W/m2
07:48 8.7 °C 6.2 °C 1015.8 hPa West 27.4 km/h 46.7 km/h 84 % 0 mm 62 W/m2
07:53 8.7 °C 6.2 °C 1015.8 hPa West 25.7 km/h 43.5 km/h 84 % 0 mm 65 W/m2
07:58 8.7 °C 6.2 °C 1015.8 hPa West 24.1 km/h 41.8 km/h 84 % 0 mm 65 W/m2
08:03 8.7 °C 6.2 °C 1015.8 hPa West 24.1 km/h 45.1 km/h 84 % 0 mm 67 W/m2
08:08 8.7 °C 6.3 °C 1015.8 hPa West 27.4 km/h 45.1 km/h 85 % 0 mm 67 W/m2
08:13 8.7 °C 6.3 °C 1015.8 hPa West 25.7 km/h 41.8 km/h 85 % 0 mm 74 W/m2
08:18 8.8 °C 6.2 °C 1015.8 hPa West 25.7 km/h 45.1 km/h 84 % 0 mm 67 W/m2
08:23 8.8 °C 6.2 °C 1015.8 hPa West 24.1 km/h 45.1 km/h 84 % 0 mm 62 W/m2
08:28 8.8 °C 6.2 °C 1015.8 hPa West 22.5 km/h 37 km/h 84 % 0 mm 58 W/m2
08:33 8.9 °C 6.3 °C 1015.8 hPa West 22.5 km/h 41.8 km/h 84 % 0 mm 49 W/m2
08:38 8.9 °C 6.3 °C 1015.8 hPa West 24.1 km/h 41.8 km/h 84 % 0 mm 44 W/m2
08:43 8.9 °C 6.3 °C 1015.8 hPa West 24.1 km/h 38.6 km/h 84 % 0 mm 53 W/m2
08:48 8.9 °C 6.3 °C 1015.8 hPa West 22.5 km/h 38.6 km/h 84 % 0 mm 54 W/m2
08:53 8.9 °C 6.3 °C 1015.8 hPa West 22.5 km/h 38.6 km/h 84 % 0 mm 81 W/m2
08:58 9 °C 6.4 °C 1015.5 hPa West 22.5 km/h 37 km/h 84 % 0 mm 88 W/m2
09:09 9.1 °C 6.6 °C 1015.5 hPa West 24.1 km/h 43.5 km/h 84 % 0 mm 53 W/m2
09:14 9.1 °C 6.6 °C 1015.8 hPa West 22.5 km/h 43.5 km/h 84 % 0 mm 44 W/m2
09:19 9.1 °C 6.6 °C 1015.5 hPa West 20.9 km/h 35.4 km/h 84 % 0 mm 76 W/m2
09:24 9.1 °C 6.6 °C 1015.5 hPa West 19.3 km/h 33.8 km/h 84 % 0 mm 107 W/m2
09:29 9.2 °C 6.6 °C 1015.5 hPa West 17.7 km/h 32.2 km/h 84 % 0 mm 109 W/m2
09:34 9.3 °C 6.7 °C 1015.5 hPa West 16.1 km/h 25.7 km/h 84 % 0 mm 109 W/m2
09:44 9.4 °C 6.7 °C 1015.5 hPa West 16.1 km/h 33.8 km/h 83 % 0 mm 76 W/m2
09:49 9.4 °C 6.7 °C 1015.8 hPa West 16.1 km/h 33.8 km/h 83 % 0 mm 69 W/m2
09:54 9.4 °C 6.7 °C 1015.8 hPa West 14.5 km/h 25.7 km/h 83 % 0 mm 67 W/m2
09:59 9.4 °C 6.7 °C 1015.8 hPa West 16.1 km/h 25.7 km/h 83 % 0 mm 79 W/m2
10:04 9.4 °C 6.8 °C 1015.5 hPa West 19.3 km/h 41.8 km/h 84 % 0 mm 158 W/m2
10:09 9.6 °C 7 °C 1015.5 hPa West 19.3 km/h 41.8 km/h 84 % 0 mm 241 W/m2
10:14 9.8 °C 7.2 °C 1015.5 hPa West 19.3 km/h 37 km/h 84 % 0 mm 380 W/m2
10:19 10.3 °C 7.6 °C 1015.1 hPa West 22.5 km/h 40.2 km/h 83 % 0 mm 413 W/m2
10:24 10.8 °C 7.7 °C 1015.1 hPa West 24.1 km/h 43.5 km/h 81 % 0 mm 490 W/m2
10:29 10.9 °C 7.6 °C 1015.1 hPa West 25.7 km/h 43.5 km/h 80 % 0 mm 290 W/m2
10:34 11.1 °C 7.8 °C 1015.1 hPa West 25.7 km/h 45.1 km/h 80 % 0 mm 290 W/m2
10:39 11.3 °C 7.8 °C 1015.1 hPa West 22.5 km/h 45.1 km/h 79 % 0 mm 454 W/m2
10:49 11.2 °C 7.7 °C 1015.1 hPa West 25.7 km/h 45.1 km/h 79 % 0 mm 279 W/m2
10:54 11.1 °C 7.6 °C 1015.1 hPa West 27.4 km/h 40.2 km/h 79 % 0 mm 193 W/m2
10:59 11 °C 7.5 °C 1015.1 hPa West 24.1 km/h 40.2 km/h 79 % 0 mm 193 W/m2
11:04 10.9 °C 7.6 °C 1015.1 hPa West 22.5 km/h 41.8 km/h 80 % 0 mm 302 W/m2
11:09 10.9 °C 7.6 °C 1015.1 hPa West 24.1 km/h 41.8 km/h 80 % 0 mm 304 W/m2
11:15 11.3 °C 8 °C 1015.1 hPa West 25.7 km/h 45.1 km/h 80 % 0 mm 626 W/m2
11:20 11.5 °C 8 °C 1014.8 hPa West 25.7 km/h 45.1 km/h 79 % 0 mm 619 W/m2
11:25 11.8 °C 8.1 °C 1014.8 hPa West 24.1 km/h 45.1 km/h 78 % 0 mm 432 W/m2
11:30 11.9 °C 8 °C 1015.1 hPa West 27.4 km/h 45.1 km/h 77 % 0 mm 464 W/m2
11:35 11.8 °C 7.9 °C 1015.1 hPa West 27.4 km/h 43.5 km/h 77 % 0 mm 473 W/m2
11:40 11.8 °C 7.9 °C 1015.1 hPa West 25.7 km/h 41.8 km/h 77 % 0 mm 385 W/m2
11:45 12.2 °C 8.1 °C 1015.1 hPa West 25.7 km/h 41.8 km/h 76 % 0 mm 385 W/m2
11:50 12.3 °C 8 °C 1015.1 hPa West 25.7 km/h 40.2 km/h 75 % 0 mm 316 W/m2
11:55 12.4 °C 8.3 °C 1015.1 hPa West 20.9 km/h 40.2 km/h 76 % 0 mm 431 W/m2
12:00 12.6 °C 8.5 °C 1015.1 hPa West 20.9 km/h 37 km/h 76 % 0 mm 519 W/m2
12:05 12.7 °C 8.4 °C 1015.1 hPa West 24.1 km/h 37 km/h 75 % 0 mm 325 W/m2
12:10 12.3 °C 8 °C 1015.1 hPa West 24.1 km/h 40.2 km/h 75 % 0 mm 357 W/m2
12:15 12.3 °C 8.2 °C 1015.1 hPa West 24.1 km/h 40.2 km/h 76 % 0 mm 443 W/m2
12:20 12.5 °C 8.4 °C 1015.1 hPa West 24.1 km/h 48.3 km/h 76 % 0 mm 443 W/m2
12:25 12.6 °C 8.1 °C 1015.1 hPa West 25.7 km/h 48.3 km/h 74 % 0 mm 568 W/m2
12:30 12.6 °C 8.1 °C 1014.8 hPa West 27.4 km/h 46.7 km/h 74 % 0 mm 789 W/m2
12:35 12.9 °C 8.6 °C 1014.8 hPa West 29 km/h 46.7 km/h 75 % 0 mm 671 W/m2
12:40 13.2 °C 8.4 °C 1015.1 hPa West 29 km/h 46.7 km/h 73 % 0 mm 439 W/m2
12:45 12.9 °C 8.2 °C 1015.1 hPa West 30.6 km/h 46.7 km/h 73 % 0 mm 385 W/m2
12:50 12.8 °C 8.3 °C 1015.1 hPa West 25.7 km/h 46.7 km/h 74 % 0 mm 371 W/m2
12:55 12.8 °C 8.3 °C 1015.1 hPa West 24.1 km/h 43.5 km/h 74 % 0 mm 555 W/m2
13:00 12.8 °C 8.3 °C 1015.1 hPa WNW 25.7 km/h 46.7 km/h 74 % 0 mm 285 W/m2
13:05 12.7 °C 8.2 °C 1015.5 hPa WNW 24.1 km/h 46.7 km/h 74 % 0 mm 230 W/m2
13:10 12.4 °C 8.1 °C 1015.1 hPa WNW 22.5 km/h 43.5 km/h 75 % 0 mm 186 W/m2
13:15 12.2 °C 8.1 °C 1015.5 hPa West 22.5 km/h 43.5 km/h 76 % 0 mm 320 W/m2
13:20 12.2 °C 8.1 °C 1015.1 hPa West 24.1 km/h 41.8 km/h 76 % 0 mm 380 W/m2
13:25 12.2 °C 8.1 °C 1015.1 hPa West 25.7 km/h 51.5 km/h 76 % 0 mm 457 W/m2
13:30 12.3 °C 8.4 °C 1015.1 hPa West 25.7 km/h 51.5 km/h 77 % 0 mm 399 W/m2
13:35 12.3 °C 8.2 °C 1015.1 hPa West 25.7 km/h 53.1 km/h 76 % 0 mm 315 W/m2
13:40 12.3 °C 8.2 °C 1014.8 hPa WNW 24.1 km/h 53.1 km/h 76 % 0 mm 276 W/m2
13:45 12.3 °C 8.2 °C 1014.8 hPa WNW 25.7 km/h 41.8 km/h 76 % 0 mm 309 W/m2
13:50 12.3 °C 8.2 °C 1014.8 hPa West 25.7 km/h 46.7 km/h 76 % 0 mm 301 W/m2
13:55 12.4 °C 8.3 °C 1014.4 hPa West 22.5 km/h 46.7 km/h 76 % 0 mm 325 W/m2
14:00 12.4 °C 8.3 °C 1014.4 hPa West 22.5 km/h 38.6 km/h 76 % 0 mm 545 W/m2
14:05 12.4 °C 8.3 °C 1014.4 hPa West 25.7 km/h 41.8 km/h 76 % 0 mm 429 W/m2
14:11 12.4 °C 8.5 °C 1014.4 hPa West 25.7 km/h 45.1 km/h 77 % 0 mm 327 W/m2
14:16 12.6 °C 8.5 °C 1014.8 hPa West 27.4 km/h 45.1 km/h 76 % 0 mm 714 W/m2
14:21 12.8 °C 8.9 °C 1014.4 hPa West 22.5 km/h 45.1 km/h 77 % 0 mm 304 W/m2
14:26 12.9 °C 8.6 °C 1014.4 hPa WNW 20.9 km/h 48.3 km/h 75 % 0 mm 308 W/m2
14:31 12.7 °C 8.4 °C 1014.4 hPa West 22.5 km/h 48.3 km/h 75 % 0 mm 276 W/m2
14:36 12.6 °C 8.3 °C 1014.4 hPa West 27.4 km/h 43.5 km/h 75 % 0 mm 373 W/m2
14:41 12.6 °C 8.7 °C 1014.4 hPa WNW 29 km/h 46.7 km/h 77 % 0 mm 768 W/m2
14:46 12.8 °C 8.9 °C 1014.1 hPa WNW 27.4 km/h 46.7 km/h 77 % 0 mm 700 W/m2
14:51 12.9 °C 8.8 °C 1014.1 hPa WNW 29 km/h 45.1 km/h 76 % 0 mm 557 W/m2
14:56 12.9 °C 8.6 °C 1014.1 hPa WNW 27.4 km/h 45.1 km/h 75 % 0 mm 501 W/m2
15:01 12.8 °C 8.5 °C 1014.1 hPa West 29 km/h 49.9 km/h 75 % 0 mm 359 W/m2
15:07 12.8 °C 8.7 °C 1014.1 hPa West 30.6 km/h 49.9 km/h 76 % 0 mm 497 W/m2
15:12 12.8 °C 8.7 °C 1014.1 hPa WNW 30.6 km/h 46.7 km/h 76 % 0 mm 563 W/m2
15:17 13.2 °C 8.9 °C 1014.1 hPa WNW 30.6 km/h 48.3 km/h 75 % 0 mm 557 W/m2
15:22 13.3 °C 8.8 °C 1013.8 hPa WNW 30.6 km/h 49.9 km/h 74 % 0 mm 557 W/m2
15:27 13.3 °C 8.8 °C 1013.8 hPa WNW 29 km/h 49.9 km/h 74 % 0 mm 810 W/m2
15:32 13.4 °C 8.2 °C 1013.8 hPa WNW 29 km/h 45.1 km/h 71 % 0 mm 726 W/m2
15:37 13.4 °C 8.2 °C 1013.8 hPa WNW 29 km/h 45.1 km/h 71 % 0 mm 719 W/m2
15:42 13.6 °C 8.2 °C 1014.1 hPa WNW 29 km/h 51.5 km/h 70 % 0 mm 833 W/m2
15:47 13.6 °C 8 °C 1014.1 hPa WNW 29 km/h 51.5 km/h 69 % 0 mm 684 W/m2
15:52 13.7 °C 7.9 °C 1013.8 hPa WNW 27.4 km/h 51.5 km/h 68 % 0 mm 422 W/m2
15:57 13.4 °C 7.6 °C 1013.8 hPa WNW 30.6 km/h 46.7 km/h 68 % 0 mm 341 W/m2
16:02 13.2 °C 7.8 °C 1014.1 hPa WNW 30.6 km/h 46.7 km/h 70 % 0 mm 640 W/m2
16:07 13.1 °C 7.9 °C 1013.8 hPa WNW 27.4 km/h 43.5 km/h 71 % 0 mm 406 W/m2
16:12 13.2 °C 8.1 °C 1013.8 hPa WNW 22.5 km/h 43.5 km/h 71 % 0 mm 591 W/m2
16:17 13.2 °C 7.6 °C 1013.4 hPa WNW 24.1 km/h 43.5 km/h 69 % 0 mm 613 W/m2
16:22 13 °C 7.2 °C 1013.8 hPa WNW 29 km/h 49.9 km/h 68 % 0 mm 515 W/m2
16:27 12.8 °C 6.8 °C 1013.8 hPa WNW 29 km/h 49.9 km/h 67 % 0 mm 483 W/m2
16:32 12.8 °C 6.8 °C 1013.8 hPa WNW 25.7 km/h 45.1 km/h 67 % 0 mm 522 W/m2
16:37 12.8 °C 6.6 °C 1013.8 hPa WNW 24.1 km/h 45.1 km/h 66 % 0 mm 499 W/m2
16:42 12.9 °C 6.7 °C 1013.4 hPa WNW 22.5 km/h 45.1 km/h 66 % 0 mm 455 W/m2
16:47 12.9 °C 6.2 °C 1013.8 hPa WNW 24.1 km/h 49.9 km/h 64 % 0 mm 459 W/m2
16:52 12.8 °C 6.2 °C 1013.8 hPa WNW 27.4 km/h 49.9 km/h 64 % 0 mm 329 W/m2
16:57 12.5 °C 5.9 °C 1013.4 hPa WNW 27.4 km/h 46.7 km/h 64 % 0 mm 345 W/m2
17:02 12.4 °C 5.8 °C 1013.4 hPa WNW 29 km/h 51.5 km/h 64 % 0 mm 381 W/m2
17:12 12.4 °C 5.6 °C 1013.4 hPa WNW 27.4 km/h 49.9 km/h 63 % 0 mm 390 W/m2
17:17 12.4 °C 5.3 °C 1013.4 hPa WNW 25.7 km/h 45.1 km/h 62 % 0 mm 373 W/m2
17:22 12.3 °C 5.2 °C 1013.4 hPa WNW 30.6 km/h 48.3 km/h 62 % 0 mm 279 W/m2
17:27 12.2 °C 5.1 °C 1013.4 hPa WNW 30.6 km/h 48.3 km/h 62 % 0 mm 294 W/m2
17:32 12.1 °C 5.1 °C 1013.8 hPa WNW 30.6 km/h 49.9 km/h 62 % 0 mm 318 W/m2
17:38 12.1 °C 5.3 °C 1013.8 hPa WNW 27.4 km/h 49.9 km/h 63 % 0 mm 313 W/m2
17:43 12.1 °C 4.8 °C 1013.8 hPa WNW 25.7 km/h 53.1 km/h 61 % 0 mm 272 W/m2
17:48 11.9 °C 4.6 °C 1013.8 hPa WNW 27.4 km/h 53.1 km/h 61 % 0 mm 227 W/m2
17:53 11.8 °C 4.5 °C 1014.1 hPa WNW 25.7 km/h 54.7 km/h 61 % 0 mm 246 W/m2
17:58 11.8 °C 4.5 °C 1013.8 hPa WNW 27.4 km/h 54.7 km/h 61 % 0 mm 279 W/m2
18:03 11.8 °C 4.5 °C 1013.8 hPa WNW 25.7 km/h 46.7 km/h 61 % 0 mm 272 W/m2
18:08 11.9 °C 4.4 °C 1013.8 hPa WNW 22.5 km/h 40.2 km/h 60 % 0 mm 239 W/m2
18:13 11.8 °C 4.5 °C 1013.8 hPa WNW 25.7 km/h 49.9 km/h 61 % 0 mm 225 W/m2
18:18 11.7 °C 4.2 °C 1014.1 hPa WNW 29 km/h 49.9 km/h 60 % 0 mm 211 W/m2
18:23 11.7 °C 4.2 °C 1014.1 hPa WNW 25.7 km/h 46.7 km/h 60 % 0 mm 197 W/m2
18:28 11.7 °C 3.9 °C 1014.1 hPa WNW 22.5 km/h 45.1 km/h 59 % 0 mm 181 W/m2
18:33 11.7 °C 3.9 °C 1014.1 hPa WNW 22.5 km/h 45.1 km/h 59 % 0 mm 169 W/m2
18:38 11.7 °C 3.7 °C 1014.1 hPa WNW 22.5 km/h 46.7 km/h 58 % 0 mm 153 W/m2
18:43 11.6 °C 3.6 °C 1014.1 hPa WNW 24.1 km/h 46.7 km/h 58 % 0 mm 137 W/m2
18:48 11.4 °C 3.7 °C 1014.1 hPa WNW 24.1 km/h 41.8 km/h 59 % 0 mm 125 W/m2
18:53 11.4 °C 4.2 °C 1014.1 hPa WNW 22.5 km/h 40.2 km/h 61 % 0 mm 114 W/m2
18:58 11.2 °C 3.7 °C 1014.1 hPa WNW 25.7 km/h 46.7 km/h 60 % 0 mm 95 W/m2
19:03 10.9 °C 3.7 °C 1014.1 hPa WNW 27.4 km/h 46.7 km/h 61 % 0 mm 77 W/m2
19:08 10.7 °C 3.7 °C 1014.4 hPa WNW 27.4 km/h 46.7 km/h 62 % 0 mm 70 W/m2
19:13 10.4 °C 3.7 °C 1014.4 hPa WNW 25.7 km/h 45.1 km/h 63 % 0 mm 65 W/m2
19:19 10.3 °C 4 °C 1014.4 hPa WNW 25.7 km/h 45.1 km/h 65 % 0 mm 53 W/m2
19:24 10.1 °C 3.8 °C 1014.8 hPa WNW 24.1 km/h 45.1 km/h 65 % 0 mm 42 W/m2
19:29 10.1 °C 3.8 °C 1014.8 hPa WNW 17.7 km/h 43.5 km/h 65 % 0 mm 21 W/m2
19:34 9.9 °C 3.8 °C 1014.8 hPa WNW 14.5 km/h 30.6 km/h 66 % 0 mm 18 W/m2
19:40 9.8 °C 3.7 °C 1014.8 hPa WNW 17.7 km/h 32.2 km/h 66 % 0 mm 16 W/m2
19:45 9.7 °C 3.7 °C 1014.8 hPa WNW 17.7 km/h 37 km/h 66 % 0 mm 12 W/m2
19:50 9.6 °C 3.6 °C 1014.8 hPa WNW 19.3 km/h 38.6 km/h 66 % 0 mm 9 W/m2
19:55 9.5 °C 3.7 °C 1014.8 hPa WNW 19.3 km/h 38.6 km/h 67 % 0 mm 7 W/m2
20:00 9.4 °C 3.6 °C 1014.8 hPa WNW 17.7 km/h 30.6 km/h 67 % 0 mm 5 W/m2
20:05 9.3 °C 3.7 °C 1015.1 hPa WNW 16.1 km/h 29 km/h 68 % 0 mm 0 W/m2
20:07 9.2 °C 3.6 °C 1015.1 hPa WNW 14.5 km/h 29 km/h 68 % 0 mm 0 W/m2
20:12 9.2 °C 3.6 °C 1015.1 hPa WNW 12.9 km/h 25.7 km/h 68 % 0 mm 0 W/m2
20:17 9.1 °C 3.7 °C 1015.1 hPa WNW 14.5 km/h 29 km/h 69 % 0 mm 0 W/m2
20:22 9 °C 3.6 °C 1015.1 hPa WNW 16.1 km/h 29 km/h 69 % 0 mm 0 W/m2
20:27 8.9 °C 3.7 °C 1015.1 hPa WNW 14.5 km/h 25.7 km/h 70 % 0 mm 0 W/m2
20:32 8.8 °C 3.8 °C 1015.5 hPa WNW 14.5 km/h 32.2 km/h 71 % 0 mm 0 W/m2
20:37 8.7 °C 3.7 °C 1015.5 hPa WNW 16.1 km/h 32.2 km/h 71 % 0 mm 0 W/m2
20:42 8.6 °C 3.8 °C 1015.5 hPa WNW 17.7 km/h 33.8 km/h 72 % 0 mm 0 W/m2
20:47 8.6 °C 3.8 °C 1015.5 hPa WNW 20.9 km/h 33.8 km/h 72 % 0 mm 0 W/m2
20:52 8.6 °C 3.8 °C 1015.5 hPa WNW 22.5 km/h 38.6 km/h 72 % 0 mm 0 W/m2
20:57 8.6 °C 3.8 °C 1015.5 hPa WNW 22.5 km/h 38.6 km/h 72 % 0 mm 0 W/m2
21:02 8.6 °C 3.8 °C 1015.5 hPa WNW 22.5 km/h 37 km/h 72 % 0 mm 0 W/m2
21:07 8.5 °C 3.9 °C 1015.5 hPa WNW 20.9 km/h 37 km/h 73 % 0 mm 0 W/m2
21:12 8.4 °C 3.8 °C 1015.5 hPa WNW 20.9 km/h 35.4 km/h 73 % 0 mm 0 W/m2
21:17 8.4 °C 4.1 °C 1015.5 hPa WNW 22.5 km/h 35.4 km/h 74 % 0 mm 0 W/m2
21:22 8.3 °C 3.9 °C 1015.5 hPa West 20.9 km/h 32.2 km/h 74 % 0 mm 0 W/m2
21:27 8.3 °C 3.9 °C 1015.5 hPa West 17.7 km/h 32.2 km/h 74 % 0 mm 0 W/m2
21:32 8.2 °C 3.8 °C 1015.5 hPa WNW 16.1 km/h 32.2 km/h 74 % 0 mm 0 W/m2
21:38 8.2 °C 4.1 °C 1015.5 hPa WNW 12.9 km/h 29 km/h 75 % 0 mm 0 W/m2
21:43 8.1 °C 3.9 °C 1015.5 hPa WNW 12.9 km/h 22.5 km/h 75 % 0 mm 0 W/m2
21:48 8.1 °C 3.9 °C 1015.5 hPa WNW 14.5 km/h 22.5 km/h 75 % 0 mm 0 W/m2
21:53 8.1 °C 3.9 °C 1015.5 hPa WNW 14.5 km/h 22.5 km/h 75 % 0 mm 0 W/m2
21:58 7.9 °C 3.9 °C 1015.5 hPa WNW 16.1 km/h 25.7 km/h 76 % 0 mm 0 W/m2
22:03 7.9 °C 3.9 °C 1015.5 hPa WNW 17.7 km/h 32.2 km/h 76 % 0 mm 0 W/m2
22:08 7.9 °C 3.7 °C 1015.5 hPa WNW 17.7 km/h 32.2 km/h 75 % 0 mm 0 W/m2
22:13 7.9 °C 3.9 °C 1015.5 hPa WNW 17.7 km/h 30.6 km/h 76 % 0 mm 0 W/m2
22:18 7.9 °C 3.9 °C 1015.5 hPa WNW 19.3 km/h 32.2 km/h 76 % 0 mm 0 W/m2
22:23 7.8 °C 3.8 °C 1015.8 hPa WNW 17.7 km/h 32.2 km/h 76 % 0 mm 0 W/m2
22:28 7.8 °C 3.8 °C 1015.5 hPa WNW 16.1 km/h 32.2 km/h 76 % 0 mm 0 W/m2
22:33 7.8 °C 3.8 °C 1015.8 hPa WNW 16.1 km/h 32.2 km/h 76 % 0 mm 0 W/m2
22:38 7.7 °C 3.7 °C 1015.8 hPa WNW 14.5 km/h 30.6 km/h 76 % 0 mm 0 W/m2
22:43 7.6 °C 3.8 °C 1015.8 hPa WNW 11.3 km/h 22.5 km/h 77 % 0 mm 0 W/m2
22:48 7.5 °C 3.7 °C 1015.8 hPa WNW 12.9 km/h 20.9 km/h 77 % 0 mm 0 W/m2
22:53 7.4 °C 3.8 °C 1015.8 hPa WNW 14.5 km/h 24.1 km/h 78 % 0 mm 0 W/m2
22:58 7.4 °C 3.8 °C 1015.8 hPa WNW 14.5 km/h 24.1 km/h 78 % 0 mm 0 W/m2
23:03 7.3 °C 3.7 °C 1015.8 hPa WNW 14.5 km/h 22.5 km/h 78 % 0 mm 0 W/m2
23:08 7.3 °C 3.9 °C 1015.8 hPa WNW 14.5 km/h 29 km/h 79 % 0 mm 0 W/m2
23:13 7.2 °C 4 °C 1015.8 hPa WNW 14.5 km/h 29 km/h 80 % 0 mm 0 W/m2
23:18 7.2 °C 4 °C 1015.8 hPa WNW 16.1 km/h 25.7 km/h 80 % 0 mm 0 W/m2
23:23 7.1 °C 3.9 °C 1015.8 hPa WNW 12.9 km/h 25.7 km/h 80 % 0 mm 0 W/m2
23:28 7.1 °C 3.9 °C 1015.8 hPa WNW 12.9 km/h 32.2 km/h 80 % 0 mm 0 W/m2
23:33 7.1 °C 4.1 °C 1015.8 hPa WNW 14.5 km/h 32.2 km/h 81 % 0 mm 0 W/m2
23:38 7.1 °C 4.1 °C 1015.8 hPa WNW 16.1 km/h 29 km/h 81 % 0 mm 0 W/m2
23:43 7.1 °C 4.1 °C 1015.8 hPa WNW 17.7 km/h 35.4 km/h 81 % 0 mm 0 W/m2
23:48 7.1 °C 3.9 °C 1015.8 hPa WNW 20.9 km/h 40.2 km/h 80 % 0 mm 0 W/m2
23:49 7.1 °C 3.9 °C 1015.8 hPa WNW 20.9 km/h 40.2 km/h 80 % 0 mm 0 W/m2
23:54 7.1 °C 3.9 °C 1015.8 hPa WNW 19.3 km/h 43.5 km/h 80 % 0 mm 0 W/m2
23:59 7.1 °C 3.9 °C 1015.8 hPa WNW 19.3 km/h 43.5 km/h 80 % 0 mm 0 W/m2
Delerius-Weather
Compliments of Weather Underground - 2.25 mb

Data updates at regular intervals.